Location: C.E.K. Mees Observatory
(42.7003°N, 77.4088°W)
Time: 15:44:03
(UTC-05:00)

Tiangong 1 - Pass Details

Date: 10 October 2017
Orbit: 275 x 302 km, 42.8° (Epoch: 14 December)

Event Time Altitude Azimuth Distance (km) Brightness Sun altitude
Rises 20:41:09 0° 278° (W) 2,057 6.2 -23.9°
Reaches altitude 10° 20:43:10 10° 276° (W) 1,211 4.6 -24.2°
Enters shadow 20:44:01 18° 273° (W) 867 3.7 -24.4°
